Weather History for KAXH - February, 2013

Change the Weather History Date:

Friday, February 8, 2013

  Actual Average (KHOU) Record (KHOU)
Temperature  
Mean Temperature 62 °F 55 °F  
Max Temperature 70 °F 65 °F 82 °F (1932)
Min Temperature 53 °F 45 °F 10 °F (1895)
Degree Days  
Heating Degree Days 4 11  
Month to date heating degree days 88  
Since 1 July heating degree days 1012  
Growing Degree Days 12 (Base 50)    
Moisture  
Dew Point 51 °F    
Average Humidity 72    
Maximum Humidity 100    
Minimum Humidity 45    
Precipitation  
Precipitation 0.00 in 0.11 in 1.84 in (1934)
Month to date precipitation 0.86  
Year to date precipitation 4.24  
Sea Level Pressure  
Sea Level Pressure 30.11 in    
Wind  
Wind Speed 6 mph (NNE)    
Max Wind Speed 13 mph    
Max Gust Speed 20 mph    
Visibility 10 miles    
Events Fog    
T = Trace of Precipitation, MM = Missing Value Source: NWS Daily Summary

Daily Weather History Graph

Daily Weather History Graph

Search for Another Location

Airport or City:

Trip Planner

Search our weather history database for the weather conditions in past years. The results will help you decide how hot, cold, wet, or windy it might be!

Date:

Astronomy

Feb. 08, 2013 Rise Set
Actual Time 7:06 AM CST 6:06 PM CST
Civil Twilight 6:41 AM CST 6:30 PM CST
Nautical Twilight 6:13 AM CST 6:58 PM CST
Astronomical Twilight 5:45 AM CST 7:26 PM CST
Moon 5:32 AM CST (2/8) 4:42 PM CST (2/8)
Length of Visible Light 11h 48m
Length of Day
10h 59m
Waning Crescent, 3% of the Moon is Illuminated
Feb 8
Waning Crescent
Feb 10
New
Feb 17
First Quarter
Feb 25
Full
Mar 4
Last Quarter

Hourly Weather History & Observations

Time (CST) Temp. Dew Point Humidity Pressure Visibility Wind Dir Wind Speed Gust Speed Precip Events Conditions
12:15 AM 60.1 °F 59.7 °F 99% 30.01 in 4.0 mi Calm Calm - N/A   Scattered Clouds
12:35 AM 60.1 °F 59.7 °F 99% 30.01 in 0.5 mi Calm Calm - N/A Fog Fog
12:55 AM 60.1 °F 60.1 °F 100% 30.01 in 5.0 mi Calm Calm - N/A   Overcast
1:15 AM 61.3 °F 61.3 °F 100% 30.02 in 7.0 mi Calm Calm - N/A   Overcast
1:35 AM 61.2 °F 61.2 °F 100% 30.02 in 7.0 mi WNW 6.9 mph - N/A   Scattered Clouds
1:55 AM 61.9 °F 59.4 °F 91% 30.03 in 10.0 mi NW 12.7 mph - N/A   Clear
2:15 AM 61.0 °F 57.4 °F 88% 30.03 in 10.0 mi NNW 9.2 mph - N/A   Clear
2:35 AM 60.3 °F 56.7 °F 88% 30.04 in 10.0 mi NNW 9.2 mph - N/A   Clear
2:55 AM 59.9 °F 55.9 °F 87% 30.04 in 10.0 mi NNW 6.9 mph - N/A   Clear
3:15 AM 59.0 °F 55.4 °F 88% 30.05 in 10.0 mi NNW 9.2 mph - N/A   Clear
3:55 AM 58.3 °F 53.8 °F 85% 30.06 in 10.0 mi NNW 9.2 mph - N/A   Clear
4:15 AM 56.5 °F 53.4 °F 89% 30.06 in 10.0 mi NNW 6.9 mph - N/A   Clear
4:35 AM 55.8 °F 52.9 °F 90% 30.06 in 10.0 mi NNW 6.9 mph - N/A   Clear
4:55 AM 56.3 °F 52.3 °F 87% 30.06 in 10.0 mi NNW 10.4 mph 17.3 mph N/A   Clear
5:15 AM 55.8 °F 52.0 °F 87% 30.07 in 10.0 mi NNW 6.9 mph - N/A   Clear
5:35 AM 55.4 °F 51.6 °F 87% 30.08 in 10.0 mi NNW 9.2 mph - N/A   Clear
5:55 AM 54.5 °F 51.1 °F 88% 30.09 in 10.0 mi NNW 6.9 mph - N/A   Clear
6:15 AM 54.5 °F 50.9 °F 88% 30.09 in 10.0 mi NNW 6.9 mph - N/A   Clear
6:35 AM 54.0 °F 50.5 °F 88% 30.10 in 10.0 mi NNW 8.1 mph - N/A   Clear
6:55 AM 53.6 °F 50.4 °F 89% 30.11 in 10.0 mi NNW 6.9 mph - N/A   Clear
7:15 AM 53.4 °F 50.0 °F 88% 30.12 in 10.0 mi NNW 4.6 mph - N/A   Clear
7:35 AM 53.8 °F 50.2 °F 88% 30.14 in 10.0 mi NNW 5.8 mph - N/A   Clear
7:55 AM 54.7 °F 50.7 °F 86% 30.15 in 10.0 mi NNW 5.8 mph - N/A   Clear
8:15 AM 56.3 °F 49.5 °F 78% 30.15 in 10.0 mi NNW 8.1 mph - N/A   Clear
8:35 AM 57.4 °F 48.9 °F 73% 30.16 in 10.0 mi North 12.7 mph 17.3 mph N/A   Clear
8:55 AM 58.3 °F 48.7 °F 71% 30.16 in 10.0 mi North 9.2 mph 19.6 mph N/A   Clear
9:15 AM 59.0 °F 48.9 °F 69% 30.17 in 10.0 mi North 12.7 mph - N/A   Clear
9:35 AM 59.9 °F 49.1 °F 67% 30.18 in 10.0 mi North 10.4 mph - N/A   Clear
9:55 AM 60.8 °F 48.9 °F 65% 30.18 in 10.0 mi North 9.2 mph - N/A   Clear
10:15 AM 61.7 °F 49.5 °F 64% 30.19 in 10.0 mi NNW 10.4 mph - N/A   Clear
10:35 AM 61.9 °F 49.5 °F 64% 30.18 in 10.0 mi North 9.2 mph - N/A   Clear
10:55 AM 63.7 °F 50.0 °F 61% 30.18 in 10.0 mi NNE 9.2 mph - N/A   Clear
11:15 AM 64.2 °F 49.3 °F 58% 30.18 in 10.0 mi North 10.4 mph - N/A   Clear
11:35 AM 64.8 °F 49.5 °F 58% 30.18 in 10.0 mi North 8.1 mph - N/A   Clear
11:55 AM 65.5 °F 49.6 °F 57% 30.17 in 10.0 mi North 9.2 mph - N/A   Clear
12:15 PM 66.2 °F 49.8 °F 55% 30.17 in 10.0 mi NNE 4.6 mph - N/A   Clear
12:35 PM 67.1 °F 49.6 °F 53% 30.16 in 10.0 mi NNE 5.8 mph - N/A   Clear
12:55 PM 67.1 °F 48.7 °F 52% 30.14 in 10.0 mi ENE 5.8 mph - N/A   Clear
1:15 PM 67.8 °F 49.3 °F 51% 30.14 in 10.0 mi NE 3.5 mph - N/A   Clear
1:35 PM 68.5 °F 48.7 °F 49% 30.13 in 10.0 mi ENE 4.6 mph - N/A   Clear
1:55 PM 68.2 °F 48.6 °F 49% 30.13 in 10.0 mi NE 5.8 mph - N/A   Clear
2:15 PM 69.1 °F 48.7 °F 48% 30.11 in 10.0 mi NE 5.8 mph - N/A   Clear
2:35 PM 69.3 °F 48.6 °F 48% 30.11 in 10.0 mi NNE 5.8 mph - N/A   Clear
2:55 PM 69.1 °F 48.4 °F 48% 30.11 in 10.0 mi Calm Calm - N/A   Clear
3:15 PM 69.6 °F 48.4 °F 47% 30.10 in 10.0 mi NE 9.2 mph - N/A   Clear
3:35 PM 70.0 °F 47.8 °F 45% 30.10 in 10.0 mi North 5.8 mph - N/A   Clear
3:55 PM 70.2 °F 48.4 °F 46% 30.10 in 10.0 mi East 5.8 mph - N/A   Clear
4:15 PM 69.6 °F 48.6 °F 47% 30.10 in 10.0 mi ENE 4.6 mph - N/A   Clear
4:35 PM 69.1 °F 47.8 °F 47% 30.09 in 10.0 mi NE 4.6 mph - N/A   Clear
4:55 PM 68.9 °F 48.7 °F 49% 30.10 in 10.0 mi NE 5.8 mph - N/A   Clear
5:15 PM 68.4 °F 48.4 °F 49% 30.10 in 10.0 mi NNE 5.8 mph - N/A   Clear
5:35 PM 66.7 °F 48.2 °F 51% 30.10 in 10.0 mi ENE 8.1 mph - N/A   Clear
5:55 PM 65.3 °F 49.1 °F 56% 30.10 in 10.0 mi NE 4.6 mph - N/A   Clear
6:15 PM 64.4 °F 49.8 °F 59% 30.11 in 10.0 mi East 5.8 mph - N/A   Clear
6:55 PM 61.2 °F 51.8 °F 71% 30.11 in 10.0 mi East 3.5 mph - N/A   Clear
7:15 PM 60.8 °F 50.9 °F 70% 30.11 in 10.0 mi ENE 10.4 mph - N/A   Clear
7:35 PM 60.1 °F 50.0 °F 69% 30.13 in 10.0 mi ENE 8.1 mph - N/A   Clear
7:55 PM 58.8 °F 49.5 °F 71% 30.14 in 10.0 mi ENE 5.8 mph - N/A   Clear
8:15 PM 58.5 °F 49.1 °F 71% 30.14 in 10.0 mi East 4.6 mph - N/A   Clear
8:35 PM 57.2 °F 49.1 °F 74% 30.15 in 10.0 mi ENE 4.6 mph - N/A   Clear
8:55 PM 56.8 °F 48.9 °F 75% 30.15 in 10.0 mi NE 4.6 mph - N/A   Clear
9:15 PM 56.3 °F 48.6 °F 75% 30.14 in 10.0 mi ENE 4.6 mph - N/A   Clear
9:35 PM 55.4 °F 48.4 °F 77% 30.15 in 10.0 mi ENE 3.5 mph - N/A   Clear
9:55 PM 54.5 °F 48.2 °F 79% 30.15 in 10.0 mi NE 4.6 mph - N/A   Clear
10:15 PM 54.5 °F 48.4 °F 80% 30.15 in 10.0 mi ENE 3.5 mph - N/A   Clear
10:35 PM 54.7 °F 48.6 °F 80% 30.14 in 10.0 mi East 3.5 mph - N/A   Clear
10:55 PM 53.6 °F 48.4 °F 82% 30.15 in 10.0 mi ENE 4.6 mph - N/A   Clear
11:15 PM 53.6 °F 48.7 °F 84% 30.14 in 10.0 mi ENE 5.8 mph - N/A   Clear
11:35 PM 54.1 °F 49.3 °F 84% 30.14 in 10.0 mi ENE 4.6 mph - N/A   Scattered Clouds
11:55 PM 55.0 °F 50.0 °F 83% 30.14 in 10.0 mi East 4.6 mph - N/A   Overcast